{"data":{"norad_id":58940,"epoch":"2026-05-25T03:51:39.364992Z","epoch_age_seconds":68043,"freshness":"FRESH","line1":"1 58940U 24027K   26145.16087228  .00001522  00000+0  63517-4 0  9998","line2":"2 58940  53.1620 314.6166 0001058  93.5257 266.5865 15.30197986129039","mean_motion":15.30197986,"eccentricity":0.0001058,"inclination_deg":53.162,"raan_deg":314.6166,"arg_perigee_deg":93.5257,"mean_anomaly_deg":266.5865,"bstar":6.3517e-5,"rev_number":12903,"period_min":94.105469565034,"perigee_km":474.49599758173,"apogee_km":475.94616815206,"semimajor_km":6853.3580828669,"source":"CELESTRAK","updated_at":"2026-05-25T13:38:18.789989Z"}}